Montreal, Quebec

5:56 AM EDT on April 24, 2017 (GMT -0400)
Montreal International (Dorval)

Weather History for CYUL - November, 2012

Change the Weather History Date:

Saturday, November 24, 2012

  Actual Average Record
Temperature  
Mean Temperature 32 °F -  
Max Temperature 36 °F 30 °F 64 °F (2014)
Min Temperature 28 °F 15 °F 6 °F (1996)
Degree Days  
Heating Degree Days 33    
Moisture  
Dew Point 25 °F    
Average Humidity 67    
Maximum Humidity 81    
Minimum Humidity 38    
Precipitation  
Precipitation 0.04 in 0.11 in - ()
Sea Level Pressure  
Sea Level Pressure 29.57 in    
Wind  
Wind Speed 17 mph ()    
Max Wind Speed 24 mph    
Max Gust Speed 38 mph    
Visibility 14.1 miles    
Events Rain , Snow    
Averages and records for this station are not official NWS values.
T = Trace of Precipitation, MM = Missing Value Source: Averaged Metar Reports

Daily Weather History Graph

Daily Weather History Graph

Search for Another Location

Airport or City:

Trip Planner

Search our weather history database for the weather conditions in past years. The results will help you decide how hot, cold, wet, or windy it might be!

Date:

Astronomy

Nov. 24, 2012 Rise Set
Actual Time 7:06 AM EST 4:16 PM EST
Civil Twilight 6:33 AM EST 4:49 PM EST
Nautical Twilight 5:57 AM EST 5:26 PM EST
Astronomical Twilight 5:21 AM EST 6:01 PM EST
Moon 2:07 PM EST 3:12 AM EST
Length of Visible Light 10h 16m
Length of Day
9h 10m
Waxing Gibbous, 87% of the Moon is Illuminated
Nov 24
Waxing Gibbous
Nov 28
Full
Dec 6
Last Quarter
Dec 13
New
Dec 20
First Quarter

Hourly Weather History & Observations

Time (EST) Temp. Windchill Dew Point Humidity Pressure Visibility Wind Dir Wind Speed Gust Speed Precip Events Conditions
12:00 AM 46.4 °F 41.1 °F 32.0 °F 57% 29.54 in 15.0 mi SW 11.5 mph - N/A   Overcast
12:41 AM 44.6 °F 36.9 °F - N/A% - 12.0 mi SW 18.4 mph - N/A Rain Light Rain Showers
1:00 AM 42 °F - 36 °F 72% 29.55 in 15 mi WSW 21.9 mph - - Rain Light Rain Showers
1:00 AM 41.0 °F 31.9 °F 35.6 °F 81% 29.55 in 15.0 mi WSW 19.6 mph - N/A Rain Light Rain Showers
2:00 AM 41.0 °F 32.2 °F 35.6 °F 81% 29.55 in 15.0 mi SW 18.4 mph - N/A Rain Light Rain Showers
2:46 AM 41.0 °F 32.2 °F - N/A% - 15.0 mi SW 18.4 mph - N/A   Overcast
3:00 AM 41.0 °F 32.5 °F 30.2 °F 65% 29.54 in 15.0 mi SW 17.3 mph - N/A   Overcast
4:00 AM 39.2 °F 28.7 °F 28.4 °F 65% 29.53 in 15.0 mi SW 23.0 mph - N/A   Mostly Cloudy
5:00 AM 37.4 °F 26.6 °F 28.4 °F 70% 29.54 in 15.0 mi SW 21.9 mph - N/A   Scattered Clouds
6:00 AM 37.4 °F 27.8 °F 28.4 °F 70% 29.54 in 15.0 mi SW 17.3 mph - N/A   Mostly Cloudy
7:00 AM 37 °F - 29 °F 63% 29.53 in 15 mi WSW 19.6 mph - -   Partly Cloudy
7:00 AM 37.4 °F 27.2 °F 28.4 °F 70% 29.53 in 15.0 mi SW 19.6 mph - N/A   Mostly Cloudy
8:00 AM 35.6 °F 25.2 °F 28.4 °F 75% 29.54 in 15.0 mi WSW 18.4 mph - N/A   Mostly Cloudy
8:50 AM 35.6 °F 25.2 °F - N/A% - 15.0 mi WSW 18.4 mph - N/A Rain Light Rain Showers
9:00 AM 35.6 °F 24.5 °F 30.2 °F 81% 29.54 in 15.0 mi WSW 20.7 mph - N/A Rain Light Rain Showers
9:22 AM 35.6 °F 25.5 °F - N/A% - 15.0 mi WSW 17.3 mph - N/A Rain , Snow Light Rain Showers
10:00 AM 35.6 °F 25.2 °F 28.4 °F 75% 29.55 in 15.0 mi WSW 18.4 mph 26.5 mph N/A Snow Light Snow Showers
11:00 AM 35.6 °F 24.5 °F 24.8 °F 65% 29.55 in 15.0 mi WSW 20.7 mph 28.8 mph N/A Snow Light Snow Showers
12:00 PM 35.6 °F 25.2 °F 23.0 °F 60% 29.55 in 15.0 mi West 18.4 mph 27.6 mph N/A Snow Light Snow Showers
1:00 PM 35 °F - 19 °F 38% 29.56 in 15 mi West 21.9 mph - - Snow Light Snow Showers
1:00 PM 35.6 °F 24.0 °F 19.4 °F 52% 29.56 in 15.0 mi West 23.0 mph 31.1 mph N/A   Overcast
2:00 PM 33.8 °F 21.3 °F 21.2 °F 60% 29.56 in 15.0 mi West 24.2 mph - N/A   Mostly Cloudy
3:00 PM 33.8 °F 21.9 °F 21.2 °F 60% 29.57 in 1.5 mi West 21.9 mph - N/A   Light Small Hail Showers
3:09 PM 30.2 °F 19.8 °F - N/A% - 15.0 mi WNW 13.8 mph 38.0 mph N/A   Light Small Hail Showers
3:35 PM 32.0 °F 20.5 °F - N/A% - 15.0 mi West 18.4 mph - N/A   Mostly Cloudy
4:00 PM 32.0 °F 20.8 °F 23.0 °F 69% 29.59 in 15.0 mi West 17.3 mph 29.9 mph N/A   Mostly Cloudy
4:44 PM 32.0 °F 20.8 °F - N/A% - 12.0 mi West 17.3 mph 26.5 mph N/A Snow Light Snow Showers
5:00 PM 30.2 °F 16.8 °F 23.0 °F 75% 29.61 in 8.0 mi WNW 23.0 mph 29.9 mph N/A Snow Light Snow Showers
6:00 PM 32.0 °F 20.8 °F 23.0 °F 69% 29.62 in 15.0 mi West 17.3 mph 27.6 mph N/A Snow Light Snow Showers
7:00 PM 30 °F - 22 °F 62% 29.63 in 12 mi West 18.4 mph - - Snow Light Snow Showers
7:00 PM 30.2 °F 19.8 °F 23.0 °F 75% 29.63 in 12.0 mi West 13.8 mph 24.2 mph N/A Snow Light Snow Showers
8:00 PM 30.2 °F 17.8 °F 21.2 °F 69% 29.64 in 15.0 mi West 19.6 mph 25.3 mph N/A   Overcast
9:00 PM 30.2 °F 18.5 °F 17.6 °F 60% 29.65 in 15.0 mi West 17.3 mph 28.8 mph N/A   Mostly Cloudy
10:00 PM 28.4 °F 17.0 °F 17.6 °F 64% 29.67 in 15.0 mi West 15.0 mph 31.1 mph N/A   Mostly Cloudy
11:00 PM 28.4 °F 15.4 °F 15.8 °F 59% 29.67 in 15.0 mi West 19.6 mph 27.6 mph N/A   Mostly Cloudy